EW5069 Weather Reports


time (UTC)temp
C
wind
direction
speed
KPH
gust
KPH
rain 1hr
cm
rain 24hr
cm
rain mn
cm
humidity
%
barometer
mb
20260503190008 9 360 0.0 0.0 0.03 0.03 0.03 78 1016.2
20260503184508 11 360 0.0 0.0 0.00 0.00 0.00 70 1015.8
20260503183007 12 234 0.0 0.0 0.00 0.00 0.00 63 1015.4
20260503181507 13 208 0.0 0.0 0.00 0.00 0.00 58 1015.0
20260503180021 13 360 0.0 0.0 0.00 0.00 0.00 58 1015.2
20260503174510 13 360 0.0 0.0 0.00 0.00 0.00 56 1015.5
20260503173004 13 360 0.0 0.0 0.00 0.00 0.00 57 1015.7
20260503171603 14 360 0.0 0.0 0.00 0.00 0.00 57 1015.9
20260503081529 3 360 0.0 0.0 0.00 0.00 0.00 77 1017.4
20260503071526 3 188 0.0 0.0 0.00 0.00 0.00 76 1017.6
20260503054517 3 360 0.0 0.0 0.00 0.00 0.00 76 1018.3
20260503053018 3 360 0.0 0.0 0.00 0.00 0.00 75 1018.4
20260503051518 3 360 0.0 0.0 0.00 0.00 0.00 76 1018.5
20260503050012 3 360 0.0 0.0 0.00 0.00 0.00 77 1018.6
20260503044522 3 360 0.0 0.0 0.00 0.00 0.00 76 1018.6
20260503043011 3 190 0.0 0.0 0.00 0.00 0.00 77 1018.6
20260503041508 3 5 0.0 0.0 0.00 0.00 0.00 79 1018.5
20260503040004 3 5 0.0 0.0 0.00 0.00 0.00 79 1018.6
20260503034504 3 360 0.0 0.0 0.00 0.00 0.00 78 1018.7
20260503033004 3 360 0.0 0.0 0.00 0.00 0.00 76 1018.6
20260503031503 4 355 0.0 0.0 0.00 0.00 0.00 75 1018.6
20260503030003 5 355 0.0 0.0 0.00 0.00 0.00 71 1018.7
20260503024502 5 355 0.0 0.0 0.00 0.00 0.00 67 1018.8
20260503023005 6 355 0.0 0.0 0.00 0.00 0.00 60 1018.7
20260503021608 6 355 0.0 0.0 0.00 0.00 0.00 56 1018.7
20260503020113 6 355 0.0 0.0 0.00 0.00 0.00 56 1018.6
20260503014600 6 355 0.0 0.0 0.00 0.00 0.00 56 1018.5
20260503013109 6 355 0.0 0.0 0.00 0.00 0.00 57 1018.4
20260503011609 7 355 0.0 0.0 0.00 0.00 0.00 54 1018.4
20260503010106 7 355 0.0 0.0 0.00 0.00 0.00 58 1018.4
20260503004559 7 330 0.0 0.0 0.00 0.00 0.00 61 1018.3
20260503003105 8 330 0.0 0.0 0.00 0.00 0.00 55 1018.3
20260503001601 9 330 0.0 0.0 0.00 0.00 0.00 50 1018.2
20260503000110 9 325 0.0 0.0 0.00 0.00 0.00 48 1018.1
20260502234556 10 338 0.0 0.0 0.00 0.00 0.00 45 1018.1
20260502233100 10 328 0.0 0.0 0.00 0.00 0.00 45 1018.1
20260502231553 10 311 0.0 0.0 0.00 0.00 0.00 43 1018.2
20260502230052 10 360 0.0 0.0 0.00 0.00 0.00 45 1018.2
20260502224551 10 360 0.0 0.0 0.00 0.00 0.00 45 1018.1
20260502223049 10 327 0.0 0.0 0.00 0.00 0.00 47 1018.1
20260502221548 10 327 0.0 0.0 0.00 0.00 0.00 46 1018.2
20260502220048 10 360 0.0 0.0 0.00 0.00 0.00 50 1018.2
20260502214546 10 316 0.0 0.0 0.00 0.00 0.00 46 1018.2
20260502213047 10 338 0.0 0.0 0.00 0.00 0.00 50 1018.2
20260502211552 9 360 0.0 0.0 0.00 0.00 0.00 51 1018.2
20260502210043 10 360 0.0 0.0 0.00 0.00 0.00 51 1018.2
20260502204542 10 360 0.0 0.0 0.00 0.00 0.00 51 1018.3
20260502203040 10 360 0.0 0.0 0.00 0.00 0.00 52 1018.3
20260502201535 10 327 0.0 0.0 0.00 0.00 0.00 50 1018.6
20260502200039 9 284 0.0 0.0 0.00 0.00 0.00 53 1018.7
20260502194534 9 360 0.0 0.0 0.00 0.00 0.00 55 1019.0
20260502193032 9 360 0.0 0.0 0.00 0.00 0.00 54 1019.0
20260502191529 8 308 0.0 0.0 0.00 0.00 0.00 53 1019.3